Regional Weather Roundup
Issued by NWS

Home | Current Version | Previous Version | Graphics & Text | Print | Product List | Glossary On
Versions: 1 2 3 4 5 6 7 8 9 10 11 12 13 14 15 16 17 18 19 20 21 22 23 24 25 26 27 28 29 30 31 32 33 34 35 36 37 38 39 40 41 42 43 44 45 46 47 48 49 50
000
ASUS45 KBOU 241807
RWRCO

WEATHER ROUNDUP FOR COLORADO
NATIONAL WEATHER SERVICE DENVER/BOULDER CO
1200 PM MDT SUN MAY 24 2015

NOTE: "FAIR" INDICATES FEW OR NO CLOUDS BELOW 12000 FEET WITH NO
SIGNIFICANT WEATHER AND/OR OBSTRUCTIONS TO VISIBILITY.

COZ001>005-013-030-031-241900-
...NORTHWEST COLORADO...

CITY           SKY/WX    TMP DP  RH WIND       PRES   REMARKS
CRAIG          LGT RAIN  46  41  82 VRB5      29.97S
HAYDEN         CLOUDY    43  36  75 NW8       29.97S
MEEKER         RAIN      45  38  76 W8        29.98R
MOUNT WERNER   NOT AVBL
STEAMBOAT SPGS CLOUDY    39  36  89 SE8       29.97R
WALDEN         PTSUNNY   46  28  49 S9        29.96F
$$

COZ006>008-011-241900-
...WEST CENTRAL VALLEYS...

CITY           SKY/WX    TMP DP  RH WIND       PRES   REMARKS
GRAND JUNCTION PTSUNNY   57  42  57 VRB5      29.94S
MONTROSE       MOSUNNY   56  35  45 NW5       29.97F
EAGLE          PTSUNNY   54  34  47 CALM      29.94F
RIFLE          CLOUDY    52  38  58 W14       29.95S
DELTA          PTSUNNY   59  40  49 MISG      29.95F
NUCLA          MOSUNNY   54  36  50 SW8       30.02F
$$

COZ017>023-064>068-241900-
...SOUTHWEST COLORADO...

CITY           SKY/WX    TMP DP  RH WIND       PRES   REMARKS
DURANGO        LGT RAIN  50  38  63 W9        30.00S
CORTEZ         CLOUDY    51  41  68 W8        30.01S
PAGOSA SPRINGS PTSUNNY   44  42  94 SW9       30.03S FOG
TELLURIDE      PTSUNNY   44  33  66 W8        30.06R
WOLF CREEK PAS NOT AVBL
$$

COZ009-010-012-014-032>034-037-058>063-241900-
...CENTRAL COLORADO...

CITY           SKY/WX    TMP DP  RH WIND       PRES   REMARKS
ASPEN          PTSUNNY   49  29  46 N7        29.95F
BUENA VISTA    PTSUNNY   49  27  42 SE8       29.97S
COPPER MTN     CLOUDY    34  19  55 SW7       30.07F THUNDER WCI  28
BERTHOUD PASS  CLOUDY    25  18  74 NW6       30.10S THUNDER WCI  18
COTTONWOOD PAS CLOUDY    46  27  46 S3        30.02S
GUNNISON       PTSUNNY   50  27  40 SW10G16   30.00S
KREMMLING      PTSUNNY   50  32  50 CALM      29.96F
LEADVILLE      CLOUDY    41  18  39 VRB3      29.99S
SALIDA         PTSUNNY   55  28  35 W8        30.01F
SUNLIGHT       CLOUDY    34  32  93 CALM      30.09S FOG
WILKERSON PASS CLOUDY    37  25  60 SW3       30.08S THUNDER
$$

COZ069>075-241900-
...SAN LUIS VALLEY/SANGRE DE CRISTO MOUNTAINS...

CITY           SKY/WX    TMP DP  RH WIND       PRES   REMARKS
ALAMOSA        CLOUDY    47  36  65 NW9       29.96S
LA VETA PASS   CLOUDY   N/A N/A N/A MISG      30.05R
SAGUACHE       PTSUNNY   45  36  70 S10       29.99R
$$

COZ035-036-038>040-241900-
...NORTHERN COLORADO FRONT RANGE...

CITY           SKY/WX    TMP DP  RH WIND       PRES   REMARKS
DENVER INTL AP CLOUDY    54  44  69 E9        29.88F
DMNS CITY PARK   N/A     59  44  57 NE6G13    29.87F
AURORA         PTSUNNY   53  44  72 NE12      29.89F
FRONT RANGE AP PTSUNNY   55  46  71 NE8       29.89F
ERIE MUNI ARPT CLOUDY    58  43  56 NE5       29.88F THUNDER
BOULDER MUN AP CLOUDY    55  41  58 NE3       29.88F THUNDER
CENTENNIAL     CLOUDY    56  41  57 VRB5      29.89S THUNDER
BROOMFIELD     PTSUNNY   55  43  62 E8        29.90F
FORT COLLINS   PTSUNNY   59  45  58 E9        29.90S
LONGMONT       PTSUNNY   63  42  47 CALM      29.90S
$$

COZ041-046-047-076>085-087-088-241900-
...PIKES PEAK/PALMER DIVIDE AND SOUTHERN FOOTHILLS...

CITY           SKY/WX    TMP DP  RH WIND       PRES   REMARKS
COLO. SPRINGS  PTSUNNY   58  38  47 CALM      29.91F THUNDER
A. F. ACADEMY  DRIZZLE   51  36  55 VRB1      29.91F
ELLICOTT       NOT AVBL
FALCON         PTSUNNY   55  37  51 W8        29.94S THUNDER
FORT CARSON    PTSUNNY   57  44  61 VRB2      29.89F
LIMON          MOSUNNY   59  47  64 MISG      29.89F
MONUMENT HILL  NOT AVBL
TRINIDAD       PTSUNNY   64  38  38 CALM      29.87F
$$

COZ042>045-048>051-090-091-241900-
...NORTHEAST COLORADO...

CITY           SKY/WX    TMP DP  RH WIND       PRES   REMARKS
GREELEY ARPT   MOSUNNY   59  45  58 E5        29.88F
AKRON          CLOUDY    62  48  60 CALM      29.88F
BURLINGTON     CLOUDY    64  53  67 NE5       29.88S
WRAY           MOSUNNY   66  52  59 E5        29.88S
STERLING       PTSUNNY   61  48  63 CALM      29.86F
HOLYOKE        NOT AVBL
FORT MORGAN    SUNNY     61  46  57 E3        29.88F
$$

COZ086-089-092>099-241900-
...SOUTHEAST COLORADO...

CITY           SKY/WX    TMP DP  RH WIND       PRES   REMARKS
PUEBLO         PTSUNNY   60  48  64 SE10      29.86F
LA JUNTA       MOSUNNY   64  50  60 VRB3      29.85F
LAMAR          MOSUNNY   68  52  56 VRB6      29.82F
SPRINGFIELD      N/A     67  52  58 VRB3      29.85F
$$



USA.gov is the U.S. government's official web portal to all federal, state and local government web resources and services.